WB4ME Weather Reports


time (UTC)temp
C
wind
direction
speed
KPH
gust
KPH
rain 1hr
cm
rain 24hr
cm
rain mn
cm
humidity
%
barometer
mb
20260906092004 19 34 0.0 0.0 0.00 0.00 0.03 89 1027.3
20260906090004 18 84 0.0 0.0 0.00 0.00 0.03 89 1027.3
20260906085004 18 84 0.0 0.0 0.00 0.00 0.03 89 1027.3
20260906084004 19 84 0.0 0.0 0.00 0.00 0.03 89 1027.3
20260906083004 19 84 0.0 0.0 0.00 0.00 0.00 89 1027.3
20260906082004 19 84 0.0 0.0 0.00 0.00 0.00 89 1027.3
20260906081004 19 84 0.0 0.0 0.00 0.00 0.00 89 1027.3
20260906075004 18 84 0.0 1.6 0.00 0.00 0.00 89 1027.3
20260906074003 18 37 0.0 0.0 0.00 0.00 0.00 89 1027.3
20260906072004 18 37 0.0 0.0 0.00 0.00 0.00 89 1027.3
20260906065004 19 117 0.0 0.0 0.00 0.00 0.00 89 1027.3
20260906064003 19 117 0.0 0.0 0.00 0.00 0.00 89 1027.3
20260906063004 19 117 0.0 0.0 0.00 0.00 0.00 89 1027.3
20260906062003 19 117 0.0 0.0 0.00 0.00 0.00 89 1027.3
20260906061003 18 117 0.0 0.0 0.00 0.00 0.00 89 1027.3
20260906060004 18 120 0.0 0.0 0.00 0.00 0.00 89 1027.3
20260906055004 19 122 0.0 3.2 0.00 0.00 0.00 89 1027.3
20260906054004 19 134 0.0 1.6 0.00 0.00 0.00 89 1027.3
20260906053003 19 113 0.0 0.0 0.00 0.00 0.00 89 1027.3
20260906052003 20 113 0.0 0.0 0.00 0.00 0.00 89 1027.3
20260906051003 19 113 0.0 0.0 0.00 0.00 0.00 89 1027.3
20260906050004 19 113 0.0 0.0 0.00 0.00 0.00 90 1027.3
20260906045003 19 113 0.0 0.0 0.00 0.00 0.00 90 1027.3
20260906044003 19 113 0.0 0.0 0.00 0.00 0.00 90 1027.3
20260906043003 20 113 0.0 0.0 0.00 0.00 0.00 90 1027.3
20260906041003 20 113 0.0 0.0 0.00 0.00 0.00 91 1027.3
20260906040006 20 113 0.0 0.0 0.00 0.00 0.00 91 1027.3
20260906035004 20 113 0.0 0.0 0.00 0.00 0.18 91 1027.3
20260906032004 20 113 0.0 0.0 0.00 0.00 0.18 92 1027.3
20260906030004 21 112 0.0 0.0 0.00 0.00 0.18 92 1027.3
20260906025004 21 115 0.0 1.6 0.00 0.00 0.18 92 1027.3
20260906024003 21 116 0.0 0.0 0.00 0.00 0.18 92 1027.3
20260906023003 21 116 0.0 3.2 0.00 0.00 0.18 92 1027.3
20260906022004 21 113 0.0 0.0 0.00 0.00 0.18 92 1027.3
20260906021004 21 114 0.0 0.0 0.00 0.00 0.18 92 1027.3
20260906015004 21 113 0.0 0.0 0.00 0.00 0.18 91 1027.3
20260906014004 21 113 0.0 0.0 0.00 0.00 0.18 91 1027.3
20260906013004 22 114 0.0 0.0 0.00 0.00 0.18 90 1027.3
20260906012004 22 114 0.0 1.6 0.00 0.00 0.18 89 1027.3
20260906011004 22 113 1.6 3.2 0.00 0.00 0.18 88 1027.3
20260906010005 22 234 0.0 0.0 0.00 0.00 0.18 87 1027.3
20260906005004 22 234 0.0 0.0 0.00 0.00 0.18 87 1027.3
20260906003004 23 234 0.0 0.0 0.00 0.00 0.18 86 1027.3
20260906001005 23 234 0.0 0.0 0.00 0.00 0.18 84 1027.3
20260905235004 24 234 0.0 1.6 0.00 0.00 0.18 81 1027.3
20260905234004 25 233 0.0 0.0 0.00 0.00 0.18 80 1027.3
20260905233004 25 233 0.0 0.0 0.00 0.00 0.18 78 1027.3
20260905232004 25 231 1.6 4.8 0.00 0.00 0.18 77 1027.3
20260905230004 26 266 1.6 6.4 0.00 0.00 0.18 75 1027.3
20260905225004 26 236 8.0 9.7 0.00 0.00 0.18 74 1027.3
20260905223004 26 249 1.6 9.7 0.00 0.00 0.18 72 1027.3
20260905222004 26 182 3.2 8.0 0.00 0.00 0.18 74 1027.3
20260905220005 27 214 8.0 11.3 0.00 0.00 0.18 74 1027.3
20260905215005 27 265 8.0 12.9 0.00 0.00 0.18 73 1027.3
20260905214004 26 213 4.8 14.5 0.00 0.00 0.18 74 1027.3
20260905213004 26 220 12.9 12.9 0.00 0.00 0.18 74 1027.3
20260905212004 26 218 6.4 9.7 0.00 0.00 0.18 75 1027.3
20260905211004 26 263 6.4 12.9 0.00 0.00 0.18 73 1027.3
20260905204004 26 229 11.3 12.9 0.00 0.00 0.18 77 1027.3
20260905203005 26 221 8.0 16.1 0.00 0.00 0.18 76 1027.3
20260905201004 25 220 6.4 12.9 0.00 0.00 0.18 79 1027.3
20260905200006 25 215 12.9 14.5 0.00 0.00 0.18 81 1027.3
20260905195004 25 246 4.8 11.3 0.00 0.00 0.18 82 1027.3
20260905194004 25 233 4.8 16.1 0.00 0.00 0.18 79 1027.3
20260905192004 23 229 6.4 12.9 0.00 0.00 0.18 83 1027.3
20260905191005 23 250 0.0 0.0 0.00 0.00 0.18 84 1027.3
20260905190006 23 215 0.0 0.0 0.00 0.00 0.18 87 1027.3
20260905184004 22 220 4.8 11.3 0.00 0.00 0.18 87 1027.3
20260905183005 22 224 4.8 8.0 0.00 0.00 0.18 87 1027.3
20260905182004 22 243 0.0 4.8 0.00 0.00 0.18 90 1027.3
20260905181004 22 255 0.0 6.4 0.00 0.00 0.18 90 1027.3
20260905180005 22 245 0.0 6.4 0.00 0.00 0.18 90 1027.3
20260905175004 22 224 3.2 4.8 0.00 0.00 0.18 90 1027.3
20260905174005 21 231 6.4 6.4 0.00 0.00 0.18 90 1027.3
20260905173004 21 222 0.0 1.6 0.00 0.00 0.18 91 1027.3
20260905172004 21 273 0.0 1.6 0.00 0.00 0.18 92 1027.3
20260905171005 20 245 0.0 4.8 0.00 0.00 0.18 92 1027.3
20260905170006 20 257 0.0 11.3 0.00 0.00 0.18 92 1027.3
20260905165004 20 101 1.6 9.7 0.00 0.00 0.18 92 1027.3
20260905164004 20 200 1.6 6.4 0.00 0.00 0.15 91 1027.3
20260905161004 21 118 0.0 4.8 0.00 0.00 0.10 89 1027.3
20260905160005 21 283 0.0 3.2 0.00 0.00 0.10 85 1027.3
20260905155004 22 145 0.0 12.9 0.00 0.00 0.08 81 1027.3
20260905154004 25 285 1.6 14.5 0.00 0.00 0.03 79 1027.3
20260905153005 26 253 0.0 8.0 0.00 0.00 0.03 81 1027.3
20260905150004 26 241 0.0 9.7 0.00 0.00 0.03 84 1027.3
20260905145004 25 227 6.4 12.9 0.00 0.00 0.03 83 1027.3
20260905144004 25 238 8.0 9.7 0.00 0.00 0.03 85 1027.3
20260905143004 25 213 4.8 6.4 0.00 0.00 0.03 87 1027.3
20260905142004 24 244 6.4 9.7 0.00 0.00 0.03 87 1027.3
20260905141004 25 218 4.8 8.0 0.00 0.00 0.03 87 1027.3
20260905140005 24 236 8.0 8.0 0.00 0.00 0.03 88 1027.3
20260905135004 23 254 1.6 6.4 0.00 0.00 0.03 89 1027.3
20260905133004 22 51 0.0 0.0 0.00 0.00 0.03 91 1027.3
20260905132004 22 51 0.0 0.0 0.00 0.00 0.03 89 1027.3
20260905131004 22 51 0.0 0.0 0.00 0.00 0.03 86 1027.3
20260905130004 21 51 0.0 0.0 0.00 0.00 0.03 87 1027.3
20260905125006 21 51 0.0 0.0 0.00 0.00 0.03 87 1027.3
20260905124004 21 51 0.0 0.0 0.00 0.00 0.03 87 1027.3
20260905122004 18 51 0.0 0.0 0.00 0.00 0.03 88 1027.3
20260905121004 18 51 0.0 0.0 0.00 0.00 0.03 88 1027.3
20260905120004 18 51 0.0 0.0 0.00 0.00 0.03 88 1027.3
20260905115004 18 51 0.0 0.0 0.00 0.00 0.03 89 1027.3
20260905114005 17 51 0.0 0.0 0.00 0.00 0.03 89 1027.3
20260905113005 17 51 0.0 0.0 0.00 0.00 0.03 89 1027.3
20260905112005 17 51 0.0 0.0 0.00 0.00 0.03 89 1027.3
20260905111005 17 51 0.0 0.0 0.00 0.00 0.03 89 1027.3
20260905105005 17 51 0.0 0.0 0.00 0.00 0.03 89 1027.3
20260905104005 18 51 0.0 0.0 0.00 0.00 0.03 89 1027.3
20260905102006 18 51 0.0 0.0 0.00 0.00 0.03 89 1027.3
20260905101005 17 51 0.0 0.0 0.00 0.00 0.03 89 1027.3
20260905100005 17 51 0.0 0.0 0.00 0.00 0.03 89 1027.3
20260905095005 17 51 0.0 0.0 0.00 0.00 0.03 89 1027.3
20260905094004 18 51 0.0 0.0 0.00 0.00 0.03 89 1027.3
20260905093004 17 51 0.0 0.0 0.00 0.00 0.03 89 1027.3